Regional Weather Roundup
Issued by NWS Wakefield, VA

Home | Current Version | Previous Version | Text Only | Print | Product List | Glossary Off
Versions: 1 2 3 4 5 6 7 8 9 10 11 12 13 14 15 16 17 18 19 20 21 22 23 24 25 26 27 28 29 30 31 32 33 34 35 36 37 38 39 40 41 42 43 44 45 46 47 48 49 50

000
ASUS41 KAKQ 291915
RWRAKQ

REGIONAL WEATHER ROUNDUP
NATIONAL WEATHER SERVICE WAKEFIELD VA
300 PM EDT FRI MAY 29 2015

Note: "fair" indicates few or no clouds below 12,000 feet with no
significant weather and/or obstructions to visibility. * = Denotes
station may not report precipitation (e.g., rain,snow,etc.),
thunder or fog.

VAZ042-051-052>054-056-292000-
NORTHERN VIRGINIA

CITY           SKY/WX    TMP DP  RH WIND       PRES   REMARKS
WASH NATIONAL  MOSUNNY   85  70  60 NE5       30.23F
DULLES         MOSUNNY   81  69  67 CALM      30.23F
FORT BELVOIR   MOSUNNY   83  71  66 VRB5      30.22F
QUANTICO       MOSUNNY   81  71  71 NE9       30.22F
FREDERICKSBRG* MOSUNNY   84  73  69 NE8       30.20F
STAFFORD*      MOSUNNY   85  68  56 E7        30.25F
WARRENTON      PTSUNNY   84  71  64 S5        30.22F
CULPEPER*      CLOUDY    71  69  92 SW3       30.23S
MANASSAS*      MOSUNNY   82  72  69 CALM      30.23F
LEESBURG*      PTSUNNY   82  70  65 SE7       30.24F
WINCHESTER       N/A    N/A N/A N/A MISG        N/A
FRONT ROYAL*   MOCLDY    79  70  73 CALM      30.23S
LURAY*         FAIR      86  70  58 NE5       30.23F
$$

VAZ048-049-060>072-079>083-292000-
CENTRAL AND SOUTH CENTRAL VIRGINIA

CITY           SKY/WX    TMP DP  RH WIND       PRES   REMARKS
RICHMOND       PTSUNNY   87  66  49 SE9       30.20F
CHESTERFIELD*  NOT AVBL
PETERSBURG*    PTSUNNY   87  72  61 SE8       30.21F
HANOVER        PTSUNNY   85  68  56 SE7       30.22F
TAPPAHANNOCK*  MOSUNNY   87  63  44 E8        30.22F
QUINTON*       FAIR      85  68  57 SE8       30.21F
CHARLOTTSVILLE LGT RAIN  81  69  67 NE8       30.22F
GORDONSVILLE*  CLOUDY    68  65  90 NE6       30.22F
ORANGE*        MOSUNNY   73  68  83 CALM      30.25F
LOUISA*        CLOUDY    81  70  69 N7        30.21S
BUMPASS*       FAIR      82  70  67 S5        30.21S
FARMVILLE*     RAIN      72  70  92 CALM      30.21F
CREWE*         MOCLDY    80  74  81 NW6       30.22S
FORT PICKETT*  MOCLDY    82  67  59 S7G18     30.22S
CHASE CITY*    FAIR      90  69  49 SE12      30.21F
CLARKSVILLE*   FAIR      88  68  51 S6        30.20F
SOUTH HILL*    MOSUNNY   83  66  54 CALM      30.27F
LAWRENCEVILLE* FAIR      86  68  54 S6        30.21F
EMPORIA*       SUNNY     86  64  48 SE7       30.23F
$$

VAZ088>098-292000-
SOUTHEAST VIRGINIA

CITY           SKY/WX    TMP DP  RH WIND       PRES   REMARKS
NORFOLK        SUNNY     84  64  50 E13       30.23S
VIRGINIA BEACH MOSUNNY   82  65  56 SE13      30.24F
NORFOLK NAVAL  MOSUNNY   88  65  46 NE13      30.24F
WEST POINT*    SUNNY     89  62  40 S7        30.24S
SALUDA*        FAIR      83  67  58 E12       30.23F
NEWPORT NEWS   SUNNY     88  67  49 E12       30.23F
LANGLEY AFB    SUNNY     82  65  56 E13       30.23F
FORT EUSTIS    SUNNY     85  63  48 SE8       30.21F
WILLIAMSBURG*  SUNNY     91  70  49 SE7       30.23F HX  97
HR EXEC AP*    FAIR      86  63  45 CALM      30.24F
FRANKLIN*      MOSUNNY   87  60  39 S7        30.22F
WAKEFIELD      MOSUNNY   84  66  54 VRB5      30.21F
$$

VAZ020-022-025-037-045-292000-
WEST CENTRAL AND SOUTHWEST VIRGINIA

CITY           SKY/WX    TMP DP  RH WIND       PRES   REMARKS
STAUNTON*      PTSUNNY   77  65  68 W7        30.27S
WAYNESBORO*    CLOUDY    70  66  85 CALM      30.26F VSB 1
HOT SPRINGS VA CLOUDY    71  61  70 S8        30.34F
LYNCHBURG      SUNNY     83  67  58 N6        30.23F
DANVILLE       MOSUNNY   85  64  49 VRB7      30.21F
SOUTH BOSTON*  CLOUDY    75  71  86 NW3       30.21F
MARTINSVILLE   MOSUNNY   81  64  56 S5        30.26R
ROANOKE        PTSUNNY   80  63  55 SW9       30.24F
BLACKSBURG     PTSUNNY   75  66  73 E6        30.30F
DUBLIN*        PTSUNNY   81  65  59 SE7       30.27F
MARION*        CLOUDY    72  65  79 W7        30.30S
HILLSVILLE*    MOSUNNY   77  62  59 S8        30.31F
RICHLANDS*     MOCLDY    68  65  88 N3        30.28F
WISE*          MOSUNNY   79  55  44 S9        30.27F
ABINGDON*      CLOUDY    80  59  48 S5        30.25F
$$

MDZ021>025-VAZ099-100-292000-
SOUTHERN MARYLAND AND THE DELMARVA PENINSULA

CITY           SKY/WX    TMP DP  RH WIND       PRES   REMARKS
PATUXENT RIVER MOSUNNY   79  67  66 SE12      30.23F
BAY BRIDGE APT   N/A    N/A N/A N/A N8        30.25S
LEONARDTOWN    MOSUNNY   79  66  65 E7        30.24F
DOVER          MOSUNNY   76  66  71 E12       30.23F
GEORGETOWN     SUNNY     81  66  60 E10       30.25F
EASTON         MOSUNNY   84  70  61 N3        30.26F
CAMBRIDGE      SUNNY     84  63  48 S8        30.23S
SALISBURY      PTSUNNY   85  68  56 S10       30.22F
OCEAN CITY     SUNNY     73  65  75 VRB6      30.26F
WALLOPS ISLAND SUNNY     77  67  71 S15       30.26F
ACCOMACK*      SUNNY     82  64  54 S10       30.25S
$$

NCZ012>017-030>032-292000-
NORTH CENTRAL AND EASTERN NORTH CAROLINA

CITY           SKY/WX    TMP DP  RH WIND       PRES   REMARKS
ROANOKE RAPIDS FAIR      84  63  48 SE7       30.22F
RALEIGH        MOSUNNY   86  65  49 VRB5      30.22F
ELIZABETH CITY SUNNY     81  66  60 E12       30.25F
AHOSKIE*       SUNNY     83  58  41 E5        30.23F
EDENTON*         N/A     82  68  61 E10       30.24S
CURRITUCK*     SUNNY     80  64  56 E10       30.26S
KILL DEVIL HLS SUNNY     78  66  66 NE6       30.25S
MANTEO         SUNNY     78  67  68 E10       30.26S
CAPE HATTERAS  SUNNY     81  67  62 E7        30.25S
TARBORO*       FAIR      87  57  36 SE6       30.23F
GOLDSBORO      MOSUNNY   87  59  39 SE3       30.20F
WASHINGTON     MOSUNNY   83  63  51 SE7       30.24S
GREENVILLE     MOSUNNY   86  63  45 S3        30.23F
NEW BERN       MOSUNNY   85  67  54 E7G16     30.24S
WILMINGTON     SUNNY     81  65  58 E9        30.23F
$$

VAZ048-292000-
ELSEWHERE

CITY           SKY/WX    TMP DP  RH WIND       PRES   REMARKS
HARRISBURG PA  PTSUNNY   84  64  50 SE5       30.22F
BALTIMORE      MOSUNNY   81  66  60 SE6       30.23F
ANNAPOLIS      SUNNY     79  67  66 SE3       30.24F
ANDREWS AFB    PTSUNNY   79  71  75 VRB6      30.23F
PHILADELPHIA   MOSUNNY   86  61  42 VRB3      30.24F
HENDERSON NC   MOSUNNY   85  60  42 S8        30.22F
GREENSBORO     PTSUNNY   81  66  60 NE12      30.23S
ROCKY MOUNT    SUNNY     87  55  33 VRB5      30.23F
$$

VAZ100-292000-
MARINE

STATION/POSITION TIME  TEMP    WIND        PRES    WAVE   SWELL
                       AIR SEA DIR/SP/G            HT/PER HT/PER
                 (UTC) (F)     (DEG/KT/KT) (MB)    (FT/S) (FT/S)
BRANDYWINE LGT   1806   68 69  140/ 10/ 12 1025.2F
CAPE MAY NJ      1800   70 71   80/ 10/ 15 1024.8F
LEWES DE         1800   65 67  100/ 12/ 14 1025.0F
15NM E FENWICK I 1850   68 68              1024.7F   3/ 9
OCEAN-CITY-INLET 1800   70 70  170/  6/  8 1024.8F
WACHAPREAGUE VA  1800   74 77  170/  9/ 11 1024.9S
THOMAS POINT MD  1900   72 71   10/  6/  6 1024.4F
GOOSES REEF MD   1900   73 74   20/  6/  8 1024.8F   1/ 3
COVE POINT MD    1800   75      60/  1/  2 1025.1F
SOLOMONS ISLAND  1800      74                N/A
BISHOPS HEAD MD  1800   76 78  150/  8/  8 1024.1F
PINEY POINT MD   1800          160/ 11/ 12   N/A
CAMBRIDGE MD     1800   80 75   30/  3/  3 1023.8F
LEWISETTA VA     1800   75 73              1023.6F
RAPPAHANNOCK LGT 1800          190/  6/  6 1025.0F
STINGRAY PT      1900   76 76  170/ 10/ 12 1024.3S   1/ 3
YORK RVR RNG VA  1800   73     140/ 12/ 13 1023.8F
YORKTOWN VA      1800   77 75  100/ 12/ 14 1023.9F
JAMESTOWN VA     1900   81 79  140/ 10/ 12   N/A
DOMINION TERM VA 1800   76      70/ 13/ 16 1024.3F
KIPTOPEKE VA     1800      78  170/ 10/ 12   N/A
CHES BAY BRIDGE  1800   73 71   80/ 11/ 14 1024.0F
CAPE HENRY VA    1800   72     130/ 13/ 17 1023.3F
CHESAPEAKE LGHT  1800   69     130/ 12/ 13 1025.5F
WILLOUBY STN VA  1800   74      70/ 11/ 12 1025.0F
CAPE HENRY BUOY  1828      63                N/A     2/ 8
1ST LANDING BUOY 1900      73              1023.9F
CAPE CHARLES BUO 1826      71                N/A     2/ 8   2/ 8
OFFSHORE WE BUOY 1811      69                N/A     3/ 8   3/ 8
64NM E OF VA BCH 1850   71 70   80/  4/  6 1024.5F   3/ 8   3/ 8
DUCK PIER NC     1800   75 66   70/  6/  6 1024.0F
44100 DUCK FRF   1824      71                N/A     2/ 8
44056 DUCK FRF   1811      70                N/A     2/ 8
OREGON INLET NC  1800   75 79   40/ 10/ 12 1024.6F
HATTERAS NC      1800   77 77  110/  8/ 11 1024.0F
DIAMOND SHLS NC  1850   77 79  130/ 10/ 12 1024.1F   3/ 8   3/ 8
CAPE LOOKOUT NC  1900   76     120/  5/  7 1023.7F
$$


USA.gov is the U.S. government's official web portal to all federal, state and local government web resources and services.